TimeCDT,TemperatureF,Dew PointF,Humidity,Sea Level PressureIn,VisibilityMPH,Wind Direction,Wind SpeedMPH,Gust SpeedMPH,PrecipitationIn,Events,Conditions,WindDirDegrees,DateUTC
12:53 AM,70.0,62.1,76,29.89,10.0,South,5.8,-,N/A,,Clear,170,2013-09-15 05:53:00
1:53 AM,70.0,63.0,78,29.88,10.0,South,8.1,-,N/A,,Clear,170,2013-09-15 06:53:00
2:53 AM,72.0,62.1,71,29.88,10.0,South,9.2,-,N/A,,Scattered Clouds,180,2013-09-15 07:53:00
3:53 AM,72.0,63.0,73,29.86,10.0,SSW,23.0,31.1,0.00,Rain,Light Rain,200,2013-09-15 08:53:00
4:53 AM,72.0,62.1,71,29.87,10.0,South,10.4,-,0.00,,Partly Cloudy,180,2013-09-15 09:53:00
5:53 AM,71.1,62.1,73,29.88,10.0,South,10.4,-,N/A,,Clear,180,2013-09-15 10:53:00
6:53 AM,71.1,62.1,73,29.88,10.0,South,9.2,-,N/A,,Scattered Clouds,190,2013-09-15 11:53:00
7:53 AM,71.1,62.1,73,29.92,10.0,Variable,4.6,-,N/A,,Partly Cloudy,0,2013-09-15 12:53:00
8:53 AM,73.0,62.1,68,29.92,10.0,Variable,5.8,-,N/A,,Clear,0,2013-09-15 13:53:00
9:53 AM,75.9,62.1,62,29.95,10.0,WNW,4.6,-,N/A,,Mostly Cloudy,300,2013-09-15 14:53:00
10:53 AM,75.9,63.0,64,29.96,10.0,NNE,8.1,-,N/A,,Mostly Cloudy,30,2013-09-15 15:53:00
11:53 AM,78.1,63.0,60,29.97,10.0,Calm,Calm,-,N/A,,Mostly Cloudy,0,2013-09-15 16:53:00
12:53 PM,79.0,64.0,60,29.97,10.0,SE,3.5,-,N/A,,Clear,130,2013-09-15 17:53:00
1:53 PM,84.0,64.9,53,29.96,10.0,NE,5.8,-,N/A,,Partly Cloudy,40,2013-09-15 18:53:00
2:53 PM,84.9,66.0,53,29.96,10.0,NE,8.1,-,N/A,,Scattered Clouds,40,2013-09-15 19:53:00
3:53 PM,82.0,66.9,60,29.97,10.0,NNE,18.4,24.2,N/A,,Mostly Cloudy,30,2013-09-15 20:53:00
4:53 PM,77.0,64.9,66,29.99,10.0,NNE,17.3,-,N/A,,Clear,30,2013-09-15 21:53:00
5:53 PM,73.9,63.0,68,30.02,10.0,NNE,18.4,-,N/A,,Partly Cloudy,30,2013-09-15 22:53:00
6:53 PM,72.0,62.1,71,30.04,10.0,NNE,15.0,-,N/A,,Mostly Cloudy,30,2013-09-15 23:53:00
7:53 PM,70.0,61.0,73,30.06,10.0,NNE,13.8,19.6,N/A,,Overcast,30,2013-09-16 00:53:00
8:53 PM,69.1,60.1,73,30.09,10.0,NE,17.3,-,N/A,,Overcast,40,2013-09-16 01:53:00
9:53 PM,68.0,59.0,73,30.12,10.0,NE,12.7,23.0,N/A,,Overcast,40,2013-09-16 02:53:00
10:53 PM,66.0,57.9,75,30.14,10.0,NE,12.7,-,N/A,,Overcast,40,2013-09-16 03:53:00
11:38 PM,64.4,57.2,77,30.18,10.0,NNE,12.7,-,N/A,,Overcast,30,2013-09-16 04:38:00
11:53 PM,64.0,57.9,80,30.17,10.0,NNE,9.2,-,N/A,,Overcast,30,2013-09-16 04:53:00